星链-6175 (STARLINK-6175 )

导读

STARLINK-6175是美国SpaceX星链互联网星座中的一颗低轨通信卫星,于2023年6月12日发射升空,归属SpaceX的星链组网任务。作为星链星座的组成部分,它运行在近地轨道,旨在为全球提供高速低延迟卫星互联网服务,覆盖偏远地区,同时可支撑军事、航空等领域的通信需求,助力缩小全球数字鸿沟,推进太空互联网基础设施部署。

基本信息
目录编号:
56882
目录名称:
STARLINK-6175
国际标识:
2023-083G
轨道中心:
EARTH
卫星名称:
星链-6175
卫星全名:
星链-6175 (STARLINK-6175 )
卫星状态:
在轨 (已飞行1098 天)
发射日期:
2023-06-12 UTC
国别 :
美国 (US)
星等 :
--
轨道信息
数据来源 国际轨道数据
星历时间: 2026-06-14T20:57:45+0800
7小时前
查看轨道信息
半长轴: 6861.196km
偏心率: 0.0001066
轨道倾角: 43.000°
近地点辐角 260.594°
升交点赤经 258.131°
平近点角 99.479°
近地点: 482.327km
远地点: 483.791km
周期: 94.267分钟
每日圈数: 15.27577
详细信息
固有亮度:
5
最大亮度:
2.4
卫星平台:
Starlink v1.5
覆盖范围:
全球
运营商:
太空探索技术公司
运营商所在国:
美国
制造商(研发单位):
太空探索技术公司
制造商所在国:
美国
使用方式:
暂无
卫星简介
星链(Starlink)计划是由太空探索技术公司(SpaceX)提出的一个巨型低轨卫星互联网星座项目,计划在2019年至2024年间在太空搭建由约1.2万颗卫星组成的“星链”网络,其中1584颗将部署在地球上空550千米处的近地轨道,并从2020年开始工作。该卫星仍在工作。
2D轨道图
3D轨道图
轨道高度分析图
轨道倾角分析图
轨道综合分析图
查看轨道综合分析图